Flag for U.S.A. Weather past 2 weeks in Petersburg, Indiana, U.S.A.

55 °F


Feels Like: 51 °F
Forecast: 37 / 58 °F
Wind: 16 mph from South

Location: Huntingburg Airport

Current Time: Nov 25, 2015 at 12:06:11 PM

Latest Report: Nov 25, 2015 at 11:35 AM

Visibility: 10 mi

Pressure: 30.40 "Hg

Humidity: 44%

Dew point: 34 °F

Location of PetersburgLocation

Historic Weather in Petersburg — Graph


Petersburg temperature yesterday

Maximum temperature yesterday: 57 °F (at 2:35 PM)
Minimum temperature yesterday: 32 °F (at 2:55 AM)
Average temperature yesterday: 44 °F

Past Weeks' High & Low Weather Summary

High66 °F (Nov 11, 1:35 PM)93% (Nov 16, 7:35 PM)30.45 "Hg (Nov 16, 7:35 PM)
Low23 °F (Nov 22, 11:55 PM)26% (Nov 20, 1:35 PM)29.58 "Hg (Nov 12, 1:35 AM)
Average46 °F62%30.14 "Hg
* Reported Nov 10 10:15 AM — Nov 25 10:55 AM, Petersburg, Weather by CustomWeather, © 2015

Note: Actual official high and low records may vary slightly from our data, if they occured in-between our weather recording intervals... More about our weather records


Petersburg weather history for previous 24 hours

Time TempWeatherWind HumidityBarometerVisibility
10:55 AM
Wed, Nov 25
54 °FSunny.16 mph47%30.40 "Hg10 mi
10:35 AM54 °FSunny.15 mph44%30.40 "Hg10 mi
10:15 AM52 °FSunny.9 mph50%30.39 "Hg10 mi
9:55 AM48 °FSunny.9 mph54%30.40 "Hg10 mi
9:35 AM48 °FSunny.8 mph50%30.40 "Hg10 mi
9:15 AM45 °FSunny.7 mph53%30.39 "Hg10 mi
8:55 AM45 °FSunny.7 mph53%30.38 "Hg10 mi
8:35 AM45 °FSunny.9 mph53%30.37 "Hg10 mi
8:15 AM45 °FSunny.8 mph53%30.38 "Hg10 mi
7:55 AM45 °FSunny.8 mph53%30.37 "Hg10 mi
7:35 AM45 °FClear.7 mph53%30.36 "Hg10 mi
7:15 AM45 °FClear.7 mph49%30.37 "Hg10 mi
6:55 AM43 °FClear.3 mph53%30.37 "Hg10 mi
6:35 AM43 °FClear.5 mph53%30.37 "Hg10 mi
6:15 AM43 °FClear.5 mph53%30.37 "Hg10 mi
5:55 AM45 °FClear.5 mph49%30.37 "Hg10 mi
5:35 AM45 °FClear.5 mph49%30.36 "Hg10 mi
5:15 AM45 °FClear.6 mph53%30.36 "Hg10 mi
4:55 AM45 °FClear.5 mph53%30.36 "Hg10 mi
4:35 AM45 °FClear.6 mph53%30.36 "Hg10 mi
4:15 AM46 °FClear.6 mph50%30.35 "Hg10 mi
3:55 AM46 °FClear.6 mph53%30.35 "Hg10 mi
3:35 AM45 °FClear.5 mph53%30.34 "Hg10 mi
3:15 AM45 °FClear.6 mph53%30.35 "Hg10 mi
2:55 AM45 °FClear.6 mph53%30.34 "Hg10 mi
2:15 AM45 °FClear.5 mph57%30.33 "Hg10 mi
1:55 AM46 °FClear.5 mph53%30.33 "Hg10 mi
1:15 AM45 °FClear.3 mph57%30.33 "Hg10 mi
12:55 AM45 °FClear.3 mph57%30.33 "Hg10 mi
12:35 AM46 °FClear.3 mph53%30.33 "Hg10 mi
12:15 AM46 °FClear.3 mph53%30.33 "Hg10 mi
11:55 PM
Tue, Nov 24
45 °FClear.3 mph57%30.32 "Hg10 mi
11:35 PM45 °FClear.5 mph57%30.32 "Hg10 mi
11:15 PM46 °FClear.6 mph53%30.32 "Hg10 mi
10:35 PM46 °FClear.5 mph57%30.32 "Hg10 mi
10:15 PM46 °FClear.5 mph57%30.33 "Hg10 mi
9:55 PM46 °FClear.6 mph53%30.32 "Hg10 mi
9:35 PM46 °FClear.6 mph57%30.32 "Hg10 mi
9:15 PM46 °FClear.7 mph57%30.32 "Hg10 mi
8:55 PM46 °FClear.6 mph57%30.32 "Hg10 mi
8:35 PM46 °FClear.6 mph62%30.32 "Hg10 mi
8:15 PM46 °FClear.5 mph62%30.32 "Hg10 mi
6:55 PM48 °FClear.5 mph58%30.31 "Hg10 mi
6:35 PM50 °FClear.3 mph54%30.31 "Hg10 mi
6:15 PM50 °FClear.5 mph58%30.31 "Hg10 mi
5:55 PM52 °FClear.3 mph54%30.30 "Hg10 mi
5:15 PM54 °FSunny.3 mph51%30.30 "Hg10 mi
4:55 PM54 °FSunny.5 mph54%30.30 "Hg10 mi
4:35 PM55 °FSunny.6 mph51%30.30 "Hg10 mi
3:55 PM57 °FSunny.8 mph48%30.30 "Hg10 mi
3:35 PM57 °FSunny.7 mph48%30.29 "Hg10 mi
3:15 PM55 °FSunny.8 mph51%30.29 "Hg10 mi
2:55 PM55 °FSunny.8 mph51%30.30 "Hg10 mi
2:35 PM57 °FSunny.9 mph51%30.30 "Hg10 mi
2:15 PM55 °FSunny.7 mph55%30.31 "Hg10 mi
1:55 PM55 °FSunny.8 mph55%30.31 "Hg10 mi
1:35 PM55 °FSunny.8 mph55%30.32 "Hg10 mi
1:15 PM54 °FSunny.7 mph54%30.33 "Hg10 mi
12:55 PM54 °FSunny.7 mph58%30.34 "Hg10 mi
12:35 PM54 °FSunny.5 mph54%30.34 "Hg10 mi
12:15 PM52 °FSunny.5 mph58%30.35 "Hg10 mi
Weather by CustomWeather, © 2015

See weather overviewHow to use our weather pages